Hourly Weather Bobo-Dioulasso

Today, 28 October, Wednesday

Time Temperature Precipitation Wind Pressure Humidity
00:00 +24°C° 0 mm 0 mps 722 mmHg 38%
01:00 +24°C° 0 mm 0 mps 722 mmHg 39%
02:00 +23°C° 0 mm 0 mps 721 mmHg 40%
03:00 +23°C° 0 mm 0 mps 721 mmHg 40%
04:00 +23°C° 0 mm 0 mps 721 mmHg 42%
05:00 +22°C° 0 mm 0 mps 721 mmHg 43%
06:00 +22°C° 0 mm 0 mps 721 mmHg 44%
07:00 +24°C° 0 mm 0 mps 722 mmHg 40%
08:00 +26°C° 0 mm 0 mps 722 mmHg 37%
09:00 +29°C° 0 mm 0 mps 723 mmHg 34%
10:00 +32°C° 0 mm 1 mps 723 mmHg 29%
11:00 +34°C° 0 mm 1 mps 722 mmHg 23%
12:00 +37°C° 0 mm 2 mps 722 mmHg 18%
13:00 +37°C° 0 mm 2 mps 721 mmHg 17%
14:00 +37°C° 0 mm 2 mps 721 mmHg 16%
15:00 +38°C° 0 mm 2 mps 720 mmHg 15%
16:00 +35°C° 0 mm 2 mps 720 mmHg 18%
17:00 +32°C° 0 mm 1 mps 720 mmHg 20%
18:00 +30°C° 0 mm 1 mps 720 mmHg 23%
19:00 +27°C° 0 mm 0 mps 721 mmHg 24%
20:00 +26°C° 0 mm 0 mps 722 mmHg 25%
21:00 +26°C° 0 mm 0 mps 722 mmHg 25%
22:00 +25°C° 0 mm 0 mps 722 mmHg 26%
23:00 +25°C° 0 mm 0 mps 722 mmHg 27%

Tomorrow, 29 October, Thursday

Time Temperature Precipitation Wind Pressure Humidity
00:00 +24°C° 0 mm 0 mps 722 mmHg 28%
01:00 +24°C° 0 mm 0 mps 721 mmHg 29%
02:00 +23°C° 0 mm 0 mps 721 mmHg 30%
03:00 +22°C° 0 mm 0 mps 721 mmHg 31%
04:00 +22°C° 0 mm 0 mps 721 mmHg 32%
05:00 +22°C° 0 mm 0 mps 721 mmHg 34%
06:00 +21°C° 0 mm 0 mps 721 mmHg 35%
07:00 +24°C° 0 mm 0 mps 722 mmHg 33%
08:00 +28°C° 0 mm 1 mps 723 mmHg 31%
09:00 +31°C° 0 mm 1 mps 723 mmHg 29%
10:00 +33°C° 0 mm 1 mps 723 mmHg 26%
11:00 +34°C° 0 mm 1 mps 723 mmHg 24%
12:00 +37°C° 0 mm 2 mps 722 mmHg 21%
13:00 +37°C° 0 mm 2 mps 722 mmHg 20%
14:00 +37°C° 0 mm 2 mps 721 mmHg 18%
15:00 +38°C° 0 mm 2 mps 721 mmHg 17%
16:00 +35°C° 0 mm 1 mps 721 mmHg 19%
17:00 +32°C° 0 mm 1 mps 721 mmHg 22%
18:00 +30°C° 0 mm 1 mps 721 mmHg 25%
19:00 +30°C° 0 mm 1 mps 721 mmHg 26%
20:00 +27°C° 0 mm 0 mps 722 mmHg 27%
21:00 +26°C° 0 mm 0 mps 722 mmHg 28%
22:00 +25°C° 0 mm 0 mps 722 mmHg 29%
23:00 +25°C° 0 mm 0 mps 722 mmHg 30%

Day after tomorrow, 30 October, Friday

Time Temperature Precipitation Wind Pressure Humidity
00:00 +24°C° 0 mm 0 mps 722 mmHg 31%
01:00 +24°C° 0 mm 0 mps 722 mmHg 32%
02:00 +23°C° 0 mm 0 mps 722 mmHg 33%
03:00 +23°C° 0 mm 0 mps 721 mmHg 34%
04:00 +23°C° 0 mm 0 mps 721 mmHg 35%
05:00 +22°C° 0 mm 0 mps 722 mmHg 36%
06:00 +22°C° 0 mm 0 mps 722 mmHg 37%
07:00 +24°C° 0 mm 0 mps 722 mmHg 35%
08:00 +26°C° 0 mm 0 mps 723 mmHg 33%
09:00 +29°C° 0 mm 0 mps 724 mmHg 31%
10:00 +31°C° 0 mm 0 mps 723 mmHg 28%
11:00 +34°C° 0 mm 0 mps 723 mmHg 25%
12:00 +36°C° 0 mm 0 mps 723 mmHg 21%
13:00 +39°C° 0 mm 1 mps 722 mmHg 20%
14:00 +37°C° 0 mm 1 mps 721 mmHg 19%
15:00 +38°C° 0 mm 2 mps 721 mmHg 18%
16:00 +35°C° 0 mm 1 mps 721 mmHg 21%
17:00 +33°C° 0 mm 1 mps 721 mmHg 24%
18:00 +29°C° 0 mm 0 mps 721 mmHg 27%
19:00 +28°C° 0 mm 0 mps 721 mmHg 28%
20:00 +28°C° 0 mm 0 mps 722 mmHg 29%
21:00 +27°C° 0 mm 0 mps 722 mmHg 29%
22:00 +26°C° 0 mm 0 mps 722 mmHg 30%
23:00 +26°C° 0 mm 0 mps 722 mmHg 31%

31 October, Saturday

Time Temperature Precipitation Wind Pressure Humidity
00:00 +25°C° 0 mm 0 mps 722 mmHg 32%
01:00 +25°C° 0 mm 0 mps 722 mmHg 33%
02:00 +24°C° 0 mm 0 mps 722 mmHg 34%
03:00 +24°C° 0 mm 0 mps 721 mmHg 34%
04:00 +24°C° 0 mm 0 mps 721 mmHg 36%
05:00 +23°C° 0 mm 0 mps 722 mmHg 37%
06:00 +25°C° 0 mm 1 mps 722 mmHg 38%
07:00 +27°C° 0 mm 1 mps 722 mmHg 38%
08:00 +29°C° 0 mm 1 mps 723 mmHg 37%
09:00 +30°C° 0 mm 2 mps 723 mmHg 36%
10:00 +34°C° 0 mm 2 mps 723 mmHg 33%
11:00 +35°C° 0 mm 1 mps 723 mmHg 30%
12:00 +37°C° 0 mm 1 mps 722 mmHg 27%
13:00 +37°C° 0 mm 1 mps 722 mmHg 25%
14:00 +37°C° 0 mm 1 mps 721 mmHg 24%
15:00 +38°C° 0 mm 2 mps 720 mmHg 22%
16:00 +35°C° 0 mm 1 mps 720 mmHg 25%
17:00 +34°C° 0 mm 1 mps 720 mmHg 27%
18:00 +32°C° 0 mm 1 mps 720 mmHg 30%
19:00 +31°C° 0 mm 1 mps 721 mmHg 32%
20:00 +30°C° 0 mm 1 mps 721 mmHg 33%
21:00 +29°C° 0 mm 1 mps 722 mmHg 35%
22:00 +29°C° 0 mm 1 mps 722 mmHg 38%
23:00 +28°C° 0 mm 1 mps 722 mmHg 40%

1 November, Sunday

Time Temperature Precipitation Wind Pressure Humidity
00:00 +28°C° 0 mm 1 mps 721 mmHg 43%
01:00 +27°C° 0 mm 1 mps 721 mmHg 45%
02:00 +27°C° 0 mm 1 mps 721 mmHg 47%
03:00 +24°C° 0 mm 0 mps 721 mmHg 49%
04:00 +26°C° 0 mm 1 mps 721 mmHg 50%
05:00 +25°C° 0 mm 1 mps 721 mmHg 52%
06:00 +25°C° 0 mm 1 mps 721 mmHg 53%
07:00 +27°C° 0 mm 1 mps 721 mmHg 50%
08:00 +29°C° 0 mm 2 mps 722 mmHg 47%
09:00 +31°C° 0 mm 2 mps 722 mmHg 44%
10:00 +33°C° 0 mm 1 mps 722 mmHg 38%
11:00 +36°C° 0 mm 1 mps 722 mmHg 32%
12:00 +36°C° 0 mm 0 mps 722 mmHg 26%
13:00 +39°C° 0 mm 1 mps 721 mmHg 25%
14:00 +39°C° 0 mm 1 mps 720 mmHg 24%
15:00 +38°C° 0 mm 2 mps 720 mmHg 23%
16:00 +36°C° 0 mm 1 mps 720 mmHg 25%
17:00 +34°C° 0 mm 1 mps 720 mmHg 28%
18:00 +30°C° 0 mm 0 mps 720 mmHg 31%
19:00 +29°C° 0 mm 0 mps 720 mmHg 32%
20:00 +29°C° 0 mm 0 mps 721 mmHg 34%
21:00 +28°C° 0 mm 0 mps 721 mmHg 36%
22:00 +27°C° 0 mm 0 mps 721 mmHg 38%
23:00 +27°C° 0 mm 0 mps 721 mmHg 40%

2 November, Monday

Time Temperature Precipitation Wind Pressure Humidity
00:00 +26°C° 0 mm 0 mps 721 mmHg 41%
01:00 +28°C° 0 mm 1 mps 721 mmHg 43%
02:00 +27°C° 0 mm 1 mps 721 mmHg 45%
03:00 +27°C° 0 mm 1 mps 720 mmHg 46%
04:00 +26°C° 0 mm 1 mps 720 mmHg 51%
05:00 +26°C° 0 mm 1 mps 721 mmHg 55%
06:00 +25°C° 0 mm 2 mps 721 mmHg 59%
07:00 +27°C° 0 mm 2 mps 721 mmHg 57%
08:00 +29°C° 0 mm 2 mps 722 mmHg 55%
09:00 +31°C° 0 mm 3 mps 722 mmHg 52%
10:00 +34°C° 0 mm 3 mps 722 mmHg 45%
11:00 +36°C° 0 mm 2 mps 722 mmHg 39%
12:00 +37°C° 0 mm 2 mps 722 mmHg 32%
13:00 +37°C° 0 mm 2 mps 721 mmHg 31%
14:00 +37°C° 0 mm 2 mps 720 mmHg 30%
15:00 +37°C° 0 mm 2 mps 720 mmHg 29%
16:00 +36°C° 0 mm 2 mps 720 mmHg 33%
17:00 +34°C° 0 mm 2 mps 720 mmHg 36%
18:00 +32°C° 0 mm 2 mps 720 mmHg 40%
19:00 +31°C° 0 mm 2 mps 720 mmHg 43%
20:00 +30°C° 0 mm 2 mps 721 mmHg 45%
21:00 +29°C° 0 mm 2 mps 721 mmHg 47%
22:00 +29°C° 0 mm 2 mps 722 mmHg 49%
23:00 +28°C° 0 mm 2 mps 722 mmHg 51%
Show more